Location: Rounton
(54.4000°N, 1.3500°W)
Time: 04:52:11
(UTC+00:00)

S-56A Canister/Altair - Pass Details

Date: 03 December 2021
Orbit: 633 x 2499 km, 38.9° (Epoch: 17 January)

Event Time Altitude Azimuth Distance (km) Brightness Sun altitude
Rises 01:44:50 0° 236° (SW) 4,554 - -51.7°
Reaches altitude 10° 01:49:11 10° 221° (SW) 3,203 - -51.3°
Maximum altitude 01:54:14 19° 179° (S) 2,171 - -50.7°
Drops below altitude 10° 01:58:16 10° 135° (SE) 2,468 - -50.3°
Sets 02:01:05 0° 117° (ESE) 3,210 - -50.0°
